This is the latest recevied weather packets stored in our database for station/object KD8NVS-13. If no packets are shown the sender has not sent any weather packets the latest 1 day(s).
| Time | Temp. | Humidity | Pressure | Rain* | Wind** | Luminosity | Snow |
|---|---|---|---|---|---|---|---|
| 1778056285 | 9.44° C | 96% | 997.3 hPa | 1.52 mm | - | 0 W/m² | - |
| 1778055677 | 9.44° C | 97% | 997 hPa | 0.76 mm | - | 0 W/m² | - |
| 1778055073 | 9.44° C | 97% | 997.3 hPa | 0.25 mm | - | 0 W/m² | - |
| 1778054467 | 9.44° C | 97% | 997 hPa | 1.52 mm | - | 0 W/m² | - |
| 1778054165 | 9.44° C | 97% | 997 hPa | 1.52 mm | - | 0 W/m² | - |
| 1778053861 | 10° C | 97% | 996.6 hPa | 1.52 mm | - | 0 W/m² | - |
| 1778052953 | 10° C | 97% | 996.3 hPa | 1.52 mm | - | 0 W/m² | - |
| 1778051743 | 10.56° C | 97% | 996.3 hPa | 0.76 mm | - | 0 W/m² | - |
| 1778051440 | 10.56° C | 98% | 996.3 hPa | 0.25 mm | - | 0 W/m² | - |
| 1778051137 | 10.56° C | 98% | 996.3 hPa | 0 mm | - | 0 W/m² | - |
| 1778050834 | 10.56° C | 98% | 996.6 hPa | 0 mm | - | 0 W/m² | - |
| 1778050532 | 10.56° C | 98% | 996.3 hPa | 3.81 mm | - | 0 W/m² | - |
| 1778049621 | 10.56° C | 98% | 996.6 hPa | 3.05 mm | - | 0 W/m² | - |
| 1778048411 | 11.67° C | 98% | 996.3 hPa | 1.52 mm | - | 0 W/m² | - |
| 1778047805 | 11.67° C | 98% | 996.3 hPa | 0.76 mm | - | 0 W/m² | - |
| 1778046290 | 12.22° C | 98% | 997 hPa | 1.02 mm | - | 0 W/m² | - |
| 1778045081 | 13.89° C | 98% | 996.6 hPa | 0.25 mm | - | 0 W/m² | - |
| 1778044778 | 14.44° C | 98% | 997 hPa | 0 mm | - | 0 W/m² | - |
| 1778044475 | 14.44° C | 98% | 997 hPa | 0 mm | - | 0 W/m² | - |
| 1778044172 | 14.44° C | 98% | 997 hPa | 0 mm | - | 0 W/m² | - |
| 1778043870 | 14.44° C | 98% | 996.6 hPa | 0 mm | - | 0 W/m² | - |
| 1778043263 | 14.44° C | 98% | 996.6 hPa | 0 mm | - | 0 W/m² | - |
| 1778042960 | 14.44° C | 98% | 997 hPa | 0 mm | - | 0 W/m² | - |
| 1778042355 | 14.44° C | 98% | 997.3 hPa | 0 mm | - | 0 W/m² | - |
| 1778042052 | 14.44° C | 98% | 997 hPa | 0 mm | - | 0 W/m² | - |
* Rain latest hour (hover to see other rain measurements)
** Current wind speed in m/s (hover to see current wind gust speed)